Wetbulb
52.74 48.50 44.97 46.86 48.53 47.85 47.00 44.82 44.53 46.66 48.38 47.37 46.87 48.20 51.03 54.48 55.04 55.71 57.26 57.64 58.13 58.92 60.73 62.32 63.53 64.14 64.09 65.84 65.59 64.04 62.56 62.02 63.75 63.77 60.89 59.87 57.87 57.94 57.86 57.97 57.98 57.98 57.78 57.48
49.77 46.02 50.08 49.91 48.85 47.28 46.44 45.49 44.69 47.41 48.36 48.81 47.44 47.67 50.96 54.07 54.85 55.66 56.42 57.72 58.57 59.34 60.34 62.07 63.47 64.43 64.97 64.21 64.14 63.16 63.21 63.78 64.71 64.12 62.57 61.24 59.56 58.81 58.70 58.39 58.21 58.01 57.30 56.01
46.13 48.51 50.98 49.02 47.79 46.49 46.40 45.42 45.64 45.84 48.04 48.65 48.78 47.25 49.90 52.88 55.50 56.63 57.72 58.56 59.21 59.41 60.48 61.66 62.81 63.50 62.80 61.93 62.59 63.38 64.33 64.14 63.37 61.82 60.75 60.28 59.61 58.81 57.41 57.15 56.84 56.80 56.13 55.41
48.84 51.51 49.61 47.78 46.62 47.94 44.93 49.14 47.86 46.75 46.50 42.14 49.40 40.56 47.96 51.31 52.17 54.21 56.23 57.87 58.86 60.13 61.69 62.22 62.94 62.64 63.17 64.12 64.83 64.88 62.93 61.55 60.93 60.88 59.41 58.58 57.04 55.35 57.14 58.62 58.00 56.70 55.44 54.62
47.44 48.67 47.91 46.80 48.05 49.58 47.06 49.77 48.44 47.81 46.10 45.40 46.13 42.87 45.42 51.52 49.66 51.93 55.22 57.07 59.11 60.59 61.03 60.65 61.33 62.22 62.61 63.02 62.16 61.37 60.90 60.45 60.42 60.11 59.86 59.00 58.05 58.73 58.53 57.87 56.17 55.69 55.57 54.00
46.86 53.10 51.19 50.68 50.21 50.06 51.24 49.06 48.85 48.48 46.61 40.91 44.67 43.99 43.90 48.06 50.09 52.30 54.78 56.85 58.65 59.10 59.36 58.69 59.55 59.86 59.76 61.33 61.04 60.75 60.04 59.22 59.86 59.74 59.71 58.75 57.53 56.29 55.76 54.95 54.30 53.52 53.14 52.18
48.45 48.76 51.32 51.89 48.63 50.79 49.93 47.17 40.48 39.02 39.40 38.30 46.03 43.36 44.86 49.54 51.44 52.94 54.26 56.21 58.02 58.66 57.49 56.75 56.62 56.73 57.76 58.58 59.27 59.42 58.97 58.10 59.10 59.25 58.87 57.94 56.51 55.03 53.22 52.70 52.02 50.80 50.47 50.58
42.96 41.83 48.58 51.21 50.08 47.76 48.01 46.88 41.17 33.06 35.42 39.23 45.58 39.77 46.09 52.14 53.17 54.08 56.29 57.21 57.87 57.65 57.03 56.45 56.89 57.15 57.57 58.34 58.86 58.95 58.53 57.76 58.42 58.07 56.92 56.41 54.84 54.22 53.44 51.62 51.30 50.84 50.46 50.52
43.89 42.92 50.09 50.11 50.96 50.21 47.48 43.94 48.82 42.32 42.60 38.60 41.37 45.73 50.36 51.34 51.65 52.76 55.21 56.38 56.67 56.66 56.56 56.41 57.26 57.63 58.11 58.22 58.45 58.88 58.25 57.01 56.86 55.92 55.23 54.05 53.34 52.09 50.88 51.11 51.59 50.94 51.00 49.34
47.85 42.57 48.17 48.95 51.14 50.94 49.07 50.38 42.72 43.47 33.83 33.08 39.52 40.50 43.51 47.00 48.61 51.23 53.86 55.32 56.27 56.46 56.14 56.79 57.29 57.87 58.51 58.66 59.10 59.24 58.61 56.70 55.50 54.45 53.42 52.37 50.79 50.49 51.13 50.89 49.91 48.85 47.93 47.05
49.85 47.04 46.10 48.01 46.55 45.75 47.22 45.48 45.61 45.18 43.68 36.40 34.69 41.33 47.78 47.44 49.74 50.81 53.39 55.64 56.24 56.10 56.31 56.96 57.60 58.25 58.57 58.75 58.04 57.86 56.95 55.00 53.23 52.39 51.45 50.28 49.85 50.32 50.23 49.12 47.54 46.66 46.49 46.09
50.53 47.92 43.23 45.24 49.43 50.36 49.46 47.04 46.89 40.94 39.14 41.09 40.72 40.16 49.08 49.93 50.72 52.00 53.13 55.14 56.38 56.65 57.02 57.40 57.73 57.85 57.21 56.57 56.21 55.55 54.36 53.02 52.00 50.71 48.65 49.17 49.84 49.29 48.18 46.86 46.02 46.58 45.61 45.75
51.01 45.47 40.50 42.49 46.34 48.54 46.19 47.52 47.29 46.71 44.56 40.16 39.14 40.76 49.79 50.24 49.64 51.14 52.13 54.29 55.56 56.24 56.80 56.95 56.83 56.07 55.49 54.95 54.61 53.91 52.63 51.56 49.83 47.04 49.07 48.84 48.01 47.20 46.23 45.65 45.93 45.69 45.14 44.45
49.77 46.75 43.91 40.02 43.20 47.05 44.92 46.08 47.28 45.85 40.72 40.47 41.18 42.86 45.82 47.94 48.36 49.68 51.39 52.89 54.84 55.57 56.01 55.92 55.07 54.73 54.39 54.00 53.21 51.92 50.51 49.67 47.28 48.65 47.42 46.65 46.36 46.10 45.55 45.68 45.22 44.68 44.33 43.56
50.78 44.70 46.25 46.35 46.24 45.86 45.58 45.01 45.51 44.34 44.78 41.84 43.17 42.87 44.86 46.76 47.67 49.63 51.10 51.88 52.90 54.27 54.49 54.38 53.58 53.46 53.35 52.21 51.20 49.68 49.28 48.72 47.88 46.52 45.76 45.38 45.35 45.79 45.50 44.97 44.20 43.87 43.81 43.09
50.75 44.95 45.62 42.72 45.63 45.08 43.24 45.21 45.38 45.07 45.29 44.49 44.47 44.07 49.23 49.96 50.22 49.24 49.80 51.01 51.52 53.06 53.54 53.75 53.48 53.04 52.10 50.72 49.00 48.80 48.27 47.33 46.12 45.12 44.16 43.98 44.29 44.30 44.05 43.44 43.25 43.05 42.40 42.42
48.88 46.28 42.72 38.60 41.94 41.63 37.40 43.02 44.40 45.25 46.36 45.93 42.59 46.67 49.11 48.52 48.08 48.61 49.74 50.86 51.17 52.33 53.08 52.90 52.68 52.35 51.60 50.15 48.55 47.31 46.76 45.66 44.75 43.49 43.21 42.79 43.17 42.30 42.33 42.36 42.19 41.19 40.96 41.66
47.52 46.34 43.68 39.08 35.81 31.88 42.83 45.82 45.24 44.53 45.98 47.31 47.13 47.70 48.02 48.09 50.01 50.71 52.00 51.79 51.73 52.39 52.82 52.85 52.60 51.57 49.98 49.09 47.25 46.84 45.32 44.74 43.21 42.32 41.65 42.02 41.86 41.58 41.71 41.55 40.97 40.90 41.09 40.48
48.97 45.68 38.85 37.91 36.69 40.68 42.48 43.64 42.58 41.74 42.40 46.59 46.59 47.05 47.70 49.24 49.95 50.05 52.04 52.34 52.59 53.14 53.43 53.13 52.43 50.06 47.96 46.36 45.38 44.97 43.99 42.61 41.64 40.33 40.29 40.94 41.31 40.77 40.66 39.98 40.14 40.44 39.82 38.06
45.33 46.61 43.19 37.79 35.25 32.42 42.14 45.19 47.65 47.00 39.36 46.81 47.11 47.00 47.34 48.33 44.10 47.88 51.47 51.85 52.10 52.99 53.01 51.74 49.74 47.23 46.05 44.99 44.78 43.67 42.44 41.45 39.48 40.07 40.23 40.88 41.03 40.42 39.79 39.99 40.07 39.89 39.15 36.45
41.22 41.53 39.30 39.02 38.03 41.42 46.05 45.97 47.83 38.10 40.86 47.86 48.56 48.34 48.08 46.55 49.33 51.20 51.77 51.33 52.62 52.46 51.30 49.90 46.76 44.85 43.98 44.34 42.96 40.63 40.08 39.27 40.27 40.57 40.50 40.47 40.62 40.23 40.34 40.09 39.71 39.19 37.96 36.01
40.94 40.53 37.94 41.18 35.10 33.76 46.73 46.51 41.68 47.55 49.10 49.27 49.33 49.76 49.79 50.60 50.67 49.47 50.58 50.75 50.26 49.24 46.66 45.32 43.62 42.33 43.10 41.98 40.37 39.21 38.41 39.84 40.70 40.21 39.66 39.40 39.87 39.65 39.56 39.24 38.68 38.33 36.04 34.16
41.48 45.56 44.60 43.66 43.64 48.18 48.54 47.64 50.14 50.22 49.05 49.63 49.82 50.66 50.63 49.88 49.72 49.07 49.49 48.23 46.62 44.46 43.21 42.56 41.70 39.58 39.65 40.00 39.12 36.90 38.60 39.69 39.10 38.34 38.13 38.54 39.27 39.48 39.21 38.01 37.55 35.03 34.13 34.02
46.58 47.18 44.56 43.06 45.71 46.83 47.96 49.44 50.38 50.92 50.51 50.87 51.23 50.72 50.72 49.71 50.59 48.49 47.37 44.88 43.11 41.70 41.04 40.62 38.56 37.85 38.68 39.24 38.39 38.57 38.90 38.65 37.80 36.84 37.15 38.02 37.94 37.54 37.76 37.68 37.34 34.24 33.91 33.49
47.32 46.76 44.63 44.49 46.47 47.21 48.35 49.53 50.04 50.07 51.06 50.77 50.86 49.81 49.69 49.97 48.50 46.60 43.34 41.81 41.10 38.97 37.72 37.65 37.51 37.56 37.90 38.59 38.36 38.97 38.51 37.98 36.70 36.68 36.98 37.23 37.24 37.31 36.94 37.04 35.80 34.58 35.59 34.69
47.70 45.71 43.96 43.73 46.88 46.77 47.89 48.29 49.25 48.69 48.07 48.61 47.23 45.32 46.42 46.35 43.54 42.07 39.40 38.02 37.36 36.54 36.90 37.06 38.07 37.59 37.35 37.61 37.91 38.42 38.89 38.38 36.95 36.02 36.46 36.80 36.42 36.57 36.48 35.83 34.60 34.55 32.23 32.21
MSLP
1007.22 1007.11 1006.46 1006.72 1006.01 1005.55 1005.03 1004.87 1004.81 1004.91 1005.80 1005.72 1005.83 1006.25 1007.30 1007.92 1008.21 1008.46 1009.13 1009.88 1010.66 1011.56 1012.59 1013.80 1014.21 1014.53 1014.65 1015.64 1016.78 1018.15 1019.07 1019.66 1019.79 1020.07 1020.58 1021.23 1021.83 1022.02 1022.30 1022.39 1022.75 1022.92 1022.98 1023.03
1006.92 1006.72 1006.21 1005.32 1005.37 1005.25 1004.86 1004.76 1004.66 1005.22 1005.95 1006.09 1005.83 1006.05 1007.05 1007.63 1007.90 1008.23 1008.86 1009.68 1010.62 1011.62 1012.80 1013.63 1014.18 1014.75 1015.30 1016.34 1017.41 1018.24 1018.67 1019.05 1019.26 1019.38 1019.69 1020.04 1020.50 1020.89 1021.27 1022.16 1022.75 1022.79 1023.03 1023.28
1006.98 1006.56 1006.23 1005.62 1005.39 1005.10 1004.95 1004.81 1005.99 1004.96 1005.97 1006.27 1005.63 1005.58 1006.61 1007.35 1007.60 1008.13 1008.75 1009.35 1010.17 1011.33 1012.40 1013.46 1014.06 1014.84 1015.84 1016.71 1017.38 1017.70 1017.77 1018.14 1018.41 1018.88 1019.31 1019.65 1020.23 1020.99 1021.44 1021.93 1022.30 1022.70 1023.02 1023.05
1007.14 1007.42 1005.92 1005.67 1005.30 1005.32 1005.09 1005.48 1005.44 1005.45 1005.57 1005.14 1005.42 1004.25 1005.26 1006.64 1007.43 1008.43 1009.05 1009.46 1010.15 1011.04 1012.08 1013.09 1013.74 1015.11 1015.95 1016.33 1016.60 1016.43 1017.06 1017.76 1018.37 1018.93 1019.29 1019.65 1019.74 1020.22 1020.71 1020.96 1021.50 1022.14 1023.00 1023.09
1006.02 1006.03 1005.66 1005.38 1005.54 1005.83 1005.96 1005.95 1005.86 1005.68 1005.17 1005.21 1005.08 1004.80 1004.57 1006.00 1006.69 1007.78 1008.63 1009.60 1010.26 1011.18 1012.23 1012.95 1013.72 1014.40 1015.02 1015.70 1016.06 1016.51 1017.18 1017.75 1018.56 1019.01 1019.14 1019.56 1019.64 1020.21 1020.84 1021.36 1021.90 1022.30 1022.53 1022.88
1007.59 1006.61 1005.93 1005.79 1006.39 1006.42 1006.57 1006.48 1006.37 1006.17 1005.75 1005.20 1004.83 1004.71 1003.78 1004.59 1005.37 1006.65 1008.42 1009.50 1010.37 1011.48 1012.32 1013.05 1013.77 1014.50 1015.24 1015.97 1016.33 1016.83 1017.29 1017.95 1018.71 1019.19 1019.47 1019.62 1020.08 1020.54 1020.95 1021.51 1021.86 1021.89 1021.98 1022.22
1006.46 1006.29 1006.77 1006.71 1006.51 1006.85 1006.71 1006.48 1006.20 1006.06 1005.75 1005.68 1005.68 1005.55 1004.76 1004.85 1006.27 1006.18 1008.05 1009.45 1010.67 1011.66 1012.39 1012.95 1013.73 1014.34 1015.31 1016.10 1016.70 1017.19 1017.50 1018.17 1018.81 1019.27 1019.69 1020.08 1020.54 1021.01 1021.33 1021.64 1021.79 1022.07 1022.19 1022.18
1005.67 1006.13 1006.40 1006.68 1006.39 1005.98 1006.34 1006.31 1006.23 1006.52 1006.53 1006.09 1006.01 1005.37 1005.05 1005.91 1006.98 1007.32 1008.20 1009.48 1010.75 1011.67 1012.30 1012.84 1013.57 1014.17 1015.11 1016.07 1016.75 1017.16 1017.48 1018.09 1018.90 1019.48 1019.90 1020.43 1020.85 1021.00 1021.46 1021.76 1022.19 1022.43 1022.46 1022.56
1005.46 1005.60 1006.75 1007.12 1007.17 1007.09 1006.54 1006.93 1007.31 1007.51 1008.43 1007.91 1006.36 1004.93 1006.19 1006.62 1007.13 1007.73 1008.24 1009.36 1010.50 1011.39 1012.07 1012.56 1013.30 1014.03 1014.81 1015.84 1016.55 1017.03 1017.29 1018.08 1018.90 1019.64 1020.21 1020.74 1021.19 1021.57 1021.85 1022.07 1022.32 1022.44 1022.63 1022.66
1005.40 1005.72 1006.78 1007.53 1007.72 1007.64 1007.38 1007.39 1007.58 1007.82 1008.00 1007.15 1005.26 1005.13 1004.73 1006.27 1006.89 1007.65 1008.02 1009.05 1010.12 1011.01 1011.70 1012.19 1012.88 1013.87 1014.59 1015.53 1016.23 1017.03 1017.33 1018.11 1019.20 1020.05 1020.45 1020.78 1021.32 1021.69 1021.95 1022.23 1022.39 1022.66 1022.89 1023.06
1006.09 1006.50 1007.07 1007.61 1007.13 1006.33 1007.19 1007.27 1007.54 1007.68 1007.98 1007.67 1006.67 1005.26 1005.82 1006.26 1006.69 1007.40 1007.87 1008.66 1009.60 1010.54 1011.26 1011.92 1012.69 1013.70 1014.67 1015.50 1016.44 1017.27 1017.66 1018.49 1019.48 1020.11 1020.77 1021.20 1021.31 1021.54 1022.05 1022.17 1022.36 1022.68 1023.01 1023.08
1006.90 1006.76 1006.70 1006.93 1006.92 1007.17 1006.90 1006.70 1007.13 1007.70 1007.92 1008.27 1007.97 1006.58 1006.54 1006.67 1006.90 1007.30 1007.70 1008.38 1009.15 1010.01 1010.79 1011.63 1012.51 1013.63 1014.82 1015.72 1016.46 1017.30 1018.10 1018.65 1019.52 1020.33 1021.10 1021.26 1021.14 1021.42 1021.71 1021.98 1022.39 1022.68 1022.93 1023.04
1007.56 1007.41 1007.08 1007.00 1007.63 1007.65 1007.17 1007.08 1007.32 1007.59 1008.41 1007.94 1007.64 1006.58 1006.64 1006.92 1007.24 1007.45 1007.57 1007.99 1008.86 1009.48 1010.26 1011.39 1012.62 1013.83 1014.78 1015.62 1016.35 1017.28 1018.24 1018.77 1019.92 1020.70 1020.78 1020.74 1020.93 1021.31 1021.61 1022.00 1022.44 1022.66 1022.78 1022.93
1008.42 1007.65 1007.31 1007.03 1006.58 1006.51 1006.99 1007.00 1007.09 1007.61 1007.91 1007.57 1006.75 1006.02 1005.98 1006.35 1006.69 1007.08 1007.62 1007.98 1008.41 1009.21 1010.15 1011.42 1012.73 1013.82 1014.71 1015.49 1016.43 1017.50 1018.48 1019.53 1020.08 1019.98 1020.20 1020.33 1020.81 1021.22 1021.70 1022.07 1022.44 1022.64 1022.80 1022.83
1008.67 1008.10 1007.97 1007.75 1007.77 1007.88 1007.32 1007.08 1007.11 1007.27 1007.28 1006.94 1006.38 1005.67 1005.06 1005.30 1005.84 1006.50 1007.18 1008.00 1008.38 1009.33 1010.59 1011.59 1012.67 1013.70 1014.62 1015.68 1016.72 1017.83 1018.81 1019.16 1019.54 1019.79 1020.17 1020.44 1020.88 1021.42 1021.74 1022.08 1022.32 1022.52 1022.55 1022.50
1008.79 1008.70 1009.05 1009.06 1008.78 1008.79 1008.12 1007.61 1007.30 1006.96 1006.85 1006.38 1005.95 1005.45 1005.57 1006.03 1006.12 1006.94 1007.45 1008.07 1008.56 1009.44 1010.62 1011.61 1012.62 1013.63 1014.75 1015.83 1017.09 1018.03 1018.55 1019.00 1019.49 1019.95 1020.38 1020.75 1021.00 1021.32 1021.56 1021.89 1022.15 1022.20 1022.27 1022.25
1008.90 1009.29 1009.95 1009.95 1010.07 1009.53 1008.84 1007.58 1007.02 1006.63 1006.50 1006.31 1005.94 1005.75 1006.19 1006.54 1007.05 1007.58 1007.85 1008.51 1009.02 1009.66 1010.65 1011.65 1012.65 1013.73 1014.92 1016.07 1017.31 1017.88 1018.47 1019.18 1019.88 1020.24 1020.48 1020.74 1021.13 1021.37 1021.58 1021.75 1021.86 1022.04 1022.08 1021.99
1009.26 1009.94 1010.86 1011.34 1011.67 1010.03 1007.65 1007.65 1007.33 1007.08 1006.59 1006.16 1006.05 1006.22 1006.58 1007.11 1007.72 1008.15 1008.39 1008.75 1009.40 1010.07 1010.90 1011.88 1012.97 1014.21 1015.48 1016.62 1017.46 1017.93 1018.63 1019.40 1019.96 1020.38 1020.65 1020.90 1021.19 1021.34 1021.57 1021.67 1021.79 1021.88 1021.85 1021.86
1009.88 1010.70 1011.66 1012.02 1011.14 1009.54 1008.32 1007.75 1008.12 1007.75 1007.15 1006.88 1007.16 1007.00 1007.24 1008.37 1008.97 1008.46 1009.08 1009.57 1009.86 1010.57 1011.38 1012.36 1013.57 1014.99 1016.40 1017.29 1018.00 1018.74 1018.97 1019.38 1019.88 1020.48 1020.72 1020.94 1021.13 1021.24 1021.40 1021.51 1021.60 1021.73 1021.82 1022.30
1010.83 1011.24 1011.56 1012.28 1011.59 1010.03 1008.87 1008.91 1008.97 1008.67 1008.01 1008.17 1008.25 1008.30 1008.47 1009.18 1009.19 1008.97 1009.96 1010.38 1010.82 1011.44 1012.22 1013.17 1014.61 1016.24 1017.11 1018.04 1018.69 1019.22 1019.63 1019.87 1020.28 1020.45 1020.83 1021.09 1021.29 1021.23 1021.19 1021.27 1021.36 1021.46 1021.54 1021.99
1011.44 1011.61 1011.81 1011.93 1011.47 1009.97 1008.87 1009.32 1009.52 1009.09 1009.49 1009.23 1009.25 1009.12 1009.39 1009.60 1010.36 1010.73 1010.85 1011.21 1011.53 1012.24 1013.14 1014.24 1015.79 1016.90 1017.87 1018.84 1019.66 1019.99 1020.09 1020.14 1020.51 1020.92 1021.09 1021.23 1021.11 1020.97 1020.97 1021.02 1021.12 1021.05 1021.20 1021.82
1010.17 1010.89 1011.38 1011.46 1011.31 1010.14 1009.51 1009.70 1009.68 1009.94 1009.73 1010.05 1009.96 1010.00 1010.45 1010.66 1011.21 1011.79 1011.76 1012.17 1012.79 1013.57 1014.74 1015.92 1016.96 1018.08 1019.30 1019.73 1019.88 1019.82 1019.97 1020.57 1020.73 1021.13 1021.11 1020.98 1020.93 1020.85 1020.74 1020.81 1020.88 1020.84 1021.20 1021.52
1009.41 1009.51 1009.79 1010.10 1009.60 1009.78 1009.71 1009.82 1010.21 1010.47 1010.62 1010.64 1010.79 1010.83 1010.92 1011.36 1011.63 1012.40 1012.80 1013.57 1014.50 1015.54 1016.66 1017.88 1018.78 1020.00 1020.25 1020.22 1020.58 1020.72 1020.60 1020.85 1021.08 1021.22 1021.02 1020.86 1020.79 1020.74 1020.58 1020.38 1020.27 1020.77 1021.14 1021.22
1009.33 1010.01 1010.07 1010.15 1009.42 1009.63 1010.15 1010.64 1011.00 1011.39 1011.58 1011.60 1011.67 1011.74 1011.81 1011.86 1012.05 1013.09 1014.08 1015.09 1016.27 1017.70 1018.76 1019.88 1020.56 1020.61 1020.37 1020.61 1020.77 1020.93 1021.07 1021.26 1021.31 1021.24 1021.07 1020.89 1020.66 1020.52 1020.56 1020.32 1020.12 1020.54 1020.78 1020.97
1009.68 1010.19 1010.01 1010.09 1009.91 1010.39 1011.25 1011.94 1012.50 1012.59 1012.52 1012.49 1012.58 1012.95 1012.89 1012.85 1013.45 1014.40 1015.80 1017.09 1018.44 1019.77 1020.54 1020.47 1020.37 1020.64 1020.81 1020.71 1020.75 1020.87 1020.98 1021.20 1021.12 1020.99 1020.83 1020.63 1020.58 1020.37 1020.06 1019.91 1019.96 1020.09 1020.35 1020.45
1010.35 1010.23 1010.85 1010.83 1011.66 1012.04 1012.11 1013.42 1013.63 1013.48 1013.78 1013.89 1014.07 1014.51 1014.56 1014.75 1015.71 1016.94 1018.76 1019.85 1020.47 1020.73 1021.08 1021.13 1020.80 1020.59 1020.54 1020.59 1020.60 1020.58 1020.59 1020.67 1020.67 1020.62 1020.48 1020.36 1020.27 1020.05 1019.84 1019.60 1019.58 1019.73 1019.71 1019.77
Wind_Speed
11 8 9 16 18 7 11 10 10 14 9 13 11 10 12 13 14 14 15 15 14 14 10 8 8 8 9 13 15 12 13 12 9 6 5 7 8 8 7 5 5 4 5 5
15 7 12 8 9 7 7 4 7 9 9 7 7 11 11 14 16 17 15 14 14 13 11 11 10 9 9 11 13 13 13 12 9 7 7 8 8 7 6 6 5 5 5 3
10 5 4 6 8 7 3 8 5 9 11 13 9 14 14 11 11 9 14 15 14 14 14 12 12 11 11 12 14 13 15 13 10 11 8 7 5 5 6 6 6 5 3 2
7 20 8 7 5 6 8 1 2 4 12 13 17 12 15 17 15 14 13 13 12 14 12 13 14 16 16 16 16 15 14 14 12 10 9 9 8 5 1 2 3 5 2 2
8 9 7 9 5 6 9 2 4 6 12 10 18 9 19 16 16 15 15 14 15 13 14 14 15 16 16 14 13 13 14 12 11 8 8 7 4 2 1 1 3 4 4 4
6 7 3 10 2 3 4 4 7 8 10 9 14 10 3 13 12 17 13 14 14 14 14 16 16 16 15 12 11 11 11 11 11 8 6 4 4 2 2 4 3 5 3 5
14 8 5 4 7 4 8 8 8 6 5 8 6 5 12 8 3 6 15 15 15 14 16 16 17 16 15 14 12 10 10 10 9 8 7 6 5 3 2 3 4 6 6 6
11 8 11 7 10 5 9 10 5 6 7 7 7 8 5 9 3 1 13 15 16 15 16 16 17 15 15 14 13 11 12 10 9 8 7 6 5 2 2 3 4 5 6 6
17 5 7 1 2 6 6 7 6 4 1 5 11 6 10 5 5 6 13 16 17 16 17 17 16 14 14 13 13 11 11 10 9 8 7 6 4 1 4 4 4 5 5 6
3 3 4 6 6 6 8 3 5 5 4 7 4 4 7 7 7 8 13 16 17 17 18 17 15 14 12 13 11 10 11 11 10 9 7 5 3 4 4 4 5 4 5 7
7 9 8 5 10 11 8 9 7 5 2 4 4 2 7 4 5 8 11 14 16 17 17 15 14 13 11 10 10 10 10 10 10 7 6 4 5 4 5 5 4 5 6 9
4 5 7 11 4 5 10 8 9 6 7 3 4 6 4 5 3 6 9 13 15 17 16 15 13 11 12 11 12 11 10 10 8 6 3 6 5 5 5 5 5 5 8 9
6 7 9 7 7 6 9 10 8 7 2 9 4 4 7 7 4 4 7 11 13 16 16 14 12 12 12 13 12 11 11 9 7 5 10 7 5 5 5 5 5 7 8 10
1 12 10 10 8 5 13 12 12 11 8 10 11 13 5 10 7 6 8 10 13 14 13 13 13 13 13 12 11 11 9 8 8 9 6 5 5 5 5 5 6 8 9 10
6 9 13 14 5 8 8 9 10 16 17 16 12 15 10 7 5 7 9 9 12 12 14 15 14 13 13 12 11 10 8 9 7 6 5 5 4 5 6 6 7 8 10 10
6 6 4 5 6 9 11 13 13 14 17 18 18 18 14 10 6 5 10 8 11 13 15 15 15 13 13 13 11 10 8 7 5 4 4 5 5 5 6 7 8 9 10 10
6 4 4 7 3 5 6 15 18 18 17 14 16 16 8 8 6 8 7 7 10 11 13 13 13 12 11 11 11 10 7 5 3 4 6 5 5 6 7 9 9 9 10 11
5 7 2 1 2 1 2 2 5 7 12 14 13 13 10 6 7 5 6 8 8 9 11 12 10 9 10 10 10 7 6 4 4 5 5 6 6 7 8 9 10 10 10 8
4 5 3 3 6 9 12 5 2 2 6 6 8 9 3 4 6 14 5 4 6 8 8 8 9 9 10 10 8 6 5 4 4 5 6 7 7 8 9 10 10 9 10 7
4 3 5 4 3 4 4 4 1 1 5 8 6 4 1 3 4 5 3 1 4 6 7 8 9 10 10 7 5 1 4 5 5 5 5 7 8 9 10 10 10 9 8 7
3 2 6 5 3 6 5 3 2 5 4 6 7 5 3 6 7 8 3 4 6 6 7 9 9 9 8 6 5 3 6 5 5 5 6 8 9 10 10 9 9 10 8 6
7 7 4 3 3 6 7 7 2 5 5 5 6 5 7 7 4 4 3 4 5 8 10 11 9 8 6 3 0 5 6 6 5 6 9 10 10 9 7 9 10 10 7 6
4 5 2 7 1 5 4 4 3 5 8 8 9 9 8 8 6 2 2 5 7 10 9 8 9 7 3 3 3 4 5 5 7 8 10 9 10 9 9 10 10 7 7 7
4 3 3 2 4 3 1 3 6 8 8 9 8 9 9 10 8 3 5 8 10 10 10 8 6 2 3 0 3 5 5 6 8 9 10 9 9 9 9 9 7 5 6 6
3 6 5 6 7 3 8 7 9 9 8 8 6 7 7 5 5 9 9 10 12 10 6 3 3 7 5 5 5 6 6 6 8 8 9 9 8 9 9 9 7 5 7 7
3 1 4 1 6 5 8 10 9 7 8 8 7 10 12 11 12 16 14 11 8 6 6 1 6 7 7 6 7 8 7 7 8 9 8 7 7 8 8 8 8 9 11 8
Wind_Direction
191 214 219 187 224 220 243 186 199 148 164 204 195 142 165 184 194 183 181 176 178 174 142 174 181 189 185 153 149 149 140 166 166 172 146 163 171 160 168 158 147 143 110 88
244 184 243 203 201 232 250 189 145 120 177 273 193 166 166 182 198 193 190 183 182 183 172 180 172 166 156 150 160 169 177 183 201 177 168 167 158 166 152 147 152 125 109 77
348 282 173 190 196 223 202 265 337 185 177 226 210 190 183 186 197 204 205 195 188 182 184 177 171 160 158 169 169 181 184 168 178 146 138 137 123 135 172 156 162 127 145 86
107 233 186 195 233 277 191 19 223 169 196 210 208 239 178 175 185 193 200 208 186 190 165 173 165 157 166 168 174 176 150 162 150 166 158 169 183 179 67 131 120 162 201 304
209 176 183 214 49 304 94 138 239 249 256 209 203 252 195 174 190 189 184 194 189 164 170 162 157 153 153 152 156 153 157 155 149 180 173 186 236 96 100 169 129 243 249 240
301 325 317 65 104 263 130 206 223 246 256 266 264 252 186 184 205 169 174 187 171 170 162 158 149 150 142 151 147 153 162 155 164 171 176 192 125 206 233 212 266 269 294 282
177 176 113 185 153 163 228 242 256 210 250 244 63 276 254 91 62 163 172 179 171 168 165 161 160 160 157 159 159 167 169 165 168 161 156 145 145 173 226 275 298 325 300 312
203 181 178 161 270 304 213 304 282 278 291 273 124 251 111 77 95 176 166 176 172 177 173 174 172 172 167 168 169 183 179 168 162 164 151 141 153 195 287 303 294 300 308 313
245 163 108 239 239 281 153 244 13 310 93 271 257 198 145 135 157 176 171 177 178 183 182 185 179 184 172 177 185 194 180 166 162 161 151 149 154 236 305 290 286 286 308 301
288 175 189 136 212 202 286 54 210 211 262 255 218 249 89 156 158 180 179 185 182 190 189 192 186 183 183 185 171 191 184 168 162 157 164 161 136 255 263 261 271 301 302 310
246 250 155 169 214 247 171 229 239 310 284 293 307 108 74 93 149 177 195 189 187 195 195 198 192 181 190 182 164 185 181 156 167 156 144 171 251 212 235 266 292 306 313 306
195 267 244 238 82 314 297 271 224 235 225 231 317 302 153 123 136 182 196 189 197 198 200 199 195 178 191 187 180 173 177 161 165 132 137 242 209 228 250 268 286 306 305 308
182 235 243 225 207 213 241 230 244 237 336 245 248 271 160 154 185 205 219 202 205 205 200 196 191 194 191 193 184 172 173 153 138 163 213 215 236 254 270 281 294 303 308 307
332 244 236 244 284 322 204 240 222 216 224 248 254 272 213 204 220 228 219 238 210 211 205 196 198 198 196 190 177 176 155 158 186 208 230 257 261 271 275 283 293 306 307 307
244 237 241 261 293 287 286 276 237 236 242 248 264 268 293 315 257 244 235 234 228 200 213 203 201 200 192 183 177 160 175 180 186 210 251 285 262 255 260 277 298 298 299 299
195 248 278 264 247 265 272 264 256 252 248 255 260 265 292 339 306 276 269 239 233 214 210 207 205 198 193 182 176 190 174 188 174 240 273 278 272 262 269 290 287 289 298 296
190 208 191 253 342 309 285 243 247 249 249 254 265 277 8 325 281 279 260 235 239 231 217 207 206 197 191 173 191 180 178 151 218 273 268 267 257 273 279 286 292 297 296 289
183 204 106 259 255 259 297 20 332 299 284 272 268 276 292 285 329 309 286 268 235 233 215 206 195 185 178 176 179 155 151 200 235 269 280 275 262 269 283 291 291 291 298 315
241 154 155 186 223 292 287 150 306 274 297 14 328 318 357 38 291 253 220 272 260 225 207 193 182 167 171 175 150 195 187 193 240 275 276 277 284 287 292 291 293 299 304 308
127 252 223 164 207 232 70 90 98 275 255 39 7 0 9 201 275 58 59 182 209 192 181 172 146 160 168 165 134 279 313 284 272 278 293 298 292 288 289 292 292 300 290 288
141 242 212 198 253 283 59 128 221 240 44 360 344 336 289 277 26 5 325 173 173 166 154 130 140 157 141 105 59 279 275 283 315 305 298 288 290 289 287 288 287 288 300 288
172 170 189 180 207 263 129 146 254 27 338 4 324 322 307 305 339 329 278 168 148 134 121 140 144 117 89 89 30 297 343 332 325 303 296 294 292 291 287 290 290 300 308 287
214 218 229 208 217 109 177 4 30 331 319 322 319 313 306 293 275 277 195 120 126 116 123 98 76 80 65 37 354 320 270 318 311 294 289 293 295 289 284 284 293 314 296 279
200 124 225 274 116 213 7 17 38 11 347 338 326 320 304 295 297 138 140 108 115 103 87 83 87 165 240 29 261 283 321 301 285 292 292 294 291 294 296 285 293 274 268 272
17 163 222 240 289 351 94 50 3 339 333 335 10 353 343 316 89 112 109 114 80 82 92 114 33 15 319 282 282 275 284 285 280 286 288 289 288 285 291 290 287 267 259 252
203 221 207 261 65 342 24 25 355 16 20 22 45 53 49 68 88 84 82 88 101 90 52 31 235 253 272 283 287 276 266 274 284 283 285 285 287 283 290 300 305 265 237 240